| time (UTC) | temp C | wind direction | speed KPH | gust KPH | rain 1hr cm | rain 24hr cm | rain mn cm | humidity % | barometer mb |
| 20260509113004 | 0 | 17 | 1.6 | 3.2 | 0.00 | 0.00 | 0.00 | 94 | 1013.8 |
| 20260509111522 | -1 | 81 | 0.0 | 3.2 | 0.00 | 0.00 | 0.00 | 94 | 1013.9 |
| 20260509110021 | -1 | 30 | 0.0 | 3.2 | 0.00 | 0.00 | 0.00 | 95 | 1013.8 |
| 20260509104517 | -2 | 352 | 0.0 | 3.2 | 0.00 | 0.00 | 0.00 | 95 | 1013.9 |
| 20260509103012 | -2 | 340 | 0.0 | 3.2 | 0.00 | 0.00 | 0.00 | 95 | 1013.8 |
| 20260509101510 | -2 | 340 | 0.0 | 3.2 | 0.00 | 0.00 | 0.00 | 94 | 1013.7 |
| 20260509100005 | -2 | 340 | 0.0 | 3.2 | 0.00 | 0.00 | 0.00 | 94 | 1013.8 |
| 20260509094528 | -2 | 340 | 0.0 | 3.2 | 0.00 | 0.00 | 0.00 | 94 | 1013.5 |
| 20260509093024 | -2 | 340 | 0.0 | 0.0 | 0.00 | 0.00 | 0.00 | 94 | 1013.2 |
| 20260509090014 | -2 | 340 | 0.0 | 3.2 | 0.00 | 0.00 | 0.00 | 94 | 1013.2 |
| 20260509083026 | -2 | 340 | 0.0 | 0.0 | 0.00 | 0.00 | 0.00 | 94 | 1013.2 |
| 20260509081525 | -2 | 340 | 0.0 | 0.0 | 0.00 | 0.00 | 0.00 | 94 | 1013.2 |
| 20260509074521 | -2 | 340 | 0.0 | 1.6 | 0.00 | 0.00 | 0.00 | 93 | 1013.3 |
| 20260509073028 | -2 | 340 | 0.0 | 3.2 | 0.00 | 0.00 | 0.00 | 93 | 1013.4 |
| 20260509070026 | -2 | 340 | 0.0 | 3.2 | 0.00 | 0.00 | 0.00 | 93 | 1013.2 |
| 20260509063030 | -2 | 340 | 0.0 | 0.0 | 0.00 | 0.00 | 0.00 | 92 | 1013.3 |
| 20260509061505 | -2 | 340 | 0.0 | 3.2 | 0.00 | 0.00 | 0.00 | 92 | 1013.3 |
| 20260509054504 | -2 | 340 | 0.0 | 0.0 | 0.00 | 0.00 | 0.00 | 92 | 1013.3 |
| 20260509053003 | -2 | 340 | 0.0 | 0.0 | 0.00 | 0.00 | 0.00 | 91 | 1013.2 |
| 20260509050009 | -1 | 340 | 0.0 | 0.0 | 0.00 | 0.00 | 0.00 | 90 | 1013.0 |
| 20260509044506 | -1 | 340 | 0.0 | 3.2 | 0.00 | 0.00 | 0.00 | 90 | 1013.0 |
| 20260509043005 | -1 | 281 | 0.0 | 1.6 | 0.00 | 0.00 | 0.00 | 89 | 1012.9 |
| 20260509041505 | -1 | 281 | 0.0 | 3.2 | 0.00 | 0.00 | 0.00 | 89 | 1012.9 |
| 20260509040017 | 0 | 281 | 0.0 | 3.2 | 0.00 | 0.00 | 0.00 | 87 | 1012.8 |
| 20260509034512 | 0 | 281 | 0.0 | 3.2 | 0.00 | 0.00 | 0.00 | 87 | 1012.8 |
| 20260509033006 | 0 | 281 | 0.0 | 0.0 | 0.00 | 0.00 | 0.00 | 85 | 1012.7 |
| 20260509030005 | 0 | 281 | 0.0 | 0.0 | 0.00 | 0.00 | 0.00 | 84 | 1012.3 |
| 20260509024504 | 1 | 281 | 0.0 | 3.2 | 0.00 | 0.00 | 0.00 | 82 | 1012.2 |
| 20260509023021 | 1 | 281 | 0.0 | 0.0 | 0.00 | 0.00 | 0.00 | 80 | 1012.0 |
| 20260509021517 | 2 | 281 | 0.0 | 0.0 | 0.00 | 0.00 | 0.00 | 78 | 1012.0 |
| 20260509020011 | 2 | 281 | 0.0 | 3.2 | 0.00 | 0.00 | 0.00 | 76 | 1011.7 |
| 20260509014511 | 3 | 281 | 0.0 | 3.2 | 0.00 | 0.00 | 0.00 | 74 | 1011.5 |
| 20260509013008 | 3 | 281 | 0.0 | 1.6 | 0.00 | 0.00 | 0.00 | 73 | 1011.3 |
| 20260509010032 | 5 | 281 | 0.0 | 1.6 | 0.00 | 0.00 | 0.00 | 69 | 1010.9 |
| 20260509004518 | 5 | 269 | 0.0 | 3.2 | 0.00 | 0.00 | 0.00 | 68 | 1010.6 |
| 20260509003021 | 6 | 269 | 0.0 | 1.6 | 0.00 | 0.00 | 0.00 | 64 | 1010.4 |
| 20260509001515 | 6 | 269 | 0.0 | 3.2 | 0.00 | 0.00 | 0.00 | 62 | 1010.3 |
| 20260508234508 | 7 | 269 | 0.0 | 3.2 | 0.00 | 0.00 | 0.00 | 59 | 1009.9 |
| 20260508233024 | 8 | 269 | 0.0 | 3.2 | 0.00 | 0.00 | 0.00 | 57 | 1009.9 |
| 20260508231523 | 9 | 269 | 0.0 | 3.2 | 0.00 | 0.00 | 0.00 | 56 | 1009.8 |
| 20260508230023 | 10 | 269 | 0.0 | 3.2 | 0.00 | 0.00 | 0.00 | 52 | 1009.7 |
| 20260508224518 | 10 | 235 | 0.0 | 3.2 | 0.00 | 0.00 | 0.00 | 43 | 1009.7 |
| 20260508223033 | 10 | 292 | 0.0 | 3.2 | 0.00 | 0.00 | 0.00 | 41 | 1009.7 |
| 20260508221512 | 10 | 329 | 0.0 | 4.8 | 0.00 | 0.00 | 0.00 | 41 | 1009.6 |
| 20260508214524 | 10 | 78 | 1.6 | 12.9 | 0.00 | 0.00 | 0.00 | 41 | 1009.5 |
| 20260508213030 | 10 | 182 | 1.6 | 9.7 | 0.00 | 0.00 | 0.00 | 40 | 1009.5 |
| 20260508210019 | 11 | 59 | 0.0 | 8.0 | 0.00 | 0.00 | 0.00 | 41 | 1009.3 |
| 20260508204522 | 10 | 352 | 3.2 | 12.9 | 0.00 | 0.00 | 0.00 | 40 | 1009.1 |
| 20260508203010 | 10 | 65 | 6.4 | 14.5 | 0.00 | 0.00 | 0.00 | 40 | 1009.1 |
| 20260508201506 | 10 | 30 | 3.2 | 19.3 | 0.00 | 0.00 | 0.00 | 42 | 1009.1 |
| 20260508200005 | 10 | 295 | 3.2 | 14.5 | 0.00 | 0.00 | 0.00 | 45 | 1009.1 |
| 20260508193020 | 10 | 44 | 12.9 | 22.5 | 0.00 | 0.00 | 0.00 | 41 | 1009.3 |
| 20260508191517 | 10 | 298 | 3.2 | 16.1 | 0.00 | 0.00 | 0.00 | 44 | 1009.2 |
| 20260508190022 | 10 | 38 | 6.4 | 17.7 | 0.00 | 0.00 | 0.00 | 44 | 1009.4 |
| 20260508184511 | 10 | 56 | 3.2 | 19.3 | 0.00 | 0.00 | 0.00 | 45 | 1009.4 |
| 20260508183011 | 9 | 38 | 1.6 | 11.3 | 0.00 | 0.00 | 0.00 | 46 | 1009.5 |
| 20260508180025 | 10 | 66 | 1.6 | 17.7 | 0.00 | 0.00 | 0.00 | 45 | 1009.5 |
| 20260508174520 | 9 | 119 | 4.8 | 27.4 | 0.00 | 0.00 | 0.00 | 43 | 1009.5 |
| 20260508173019 | 8 | 5 | 1.6 | 6.4 | 0.00 | 0.00 | 0.00 | 47 | 1009.5 |
| 20260508171515 | 8 | 98 | 3.2 | 12.9 | 0.00 | 0.00 | 0.00 | 48 | 1009.5 |
| 20260508170010 | 8 | 128 | 3.2 | 8.0 | 0.00 | 0.00 | 0.00 | 48 | 1009.6 |
| 20260508164508 | 8 | 79 | 1.6 | 6.4 | 0.00 | 0.00 | 0.00 | 47 | 1009.6 |
| 20260508163024 | 8 | 40 | 6.4 | 17.7 | 0.00 | 0.00 | 0.00 | 46 | 1009.5 |
| 20260508161522 | 8 | 301 | 1.6 | 4.8 | 0.00 | 0.00 | 0.00 | 45 | 1009.6 |
| 20260508160043 | 9 | 100 | 8.0 | 17.7 | 0.00 | 0.00 | 0.00 | 44 | 1009.4 |
| 20260508154516 | 9 | 19 | 6.4 | 14.5 | 0.00 | 0.00 | 0.00 | 45 | 1009.6 |
| 20260508153017 | 8 | 59 | 4.8 | 14.5 | 0.00 | 0.00 | 0.00 | 47 | 1009.4 |
| 20260508151511 | 9 | 360 | 3.2 | 14.5 | 0.00 | 0.00 | 0.00 | 53 | 1009.5 |
| 20260508150033 | 8 | 348 | 3.2 | 12.9 | 0.00 | 0.00 | 0.00 | 54 | 1009.6 |
| 20260508144525 | 8 | 348 | 4.8 | 16.1 | 0.00 | 0.00 | 0.00 | 55 | 1009.5 |
| 20260508143030 | 8 | 152 | 4.8 | 12.9 | 0.00 | 0.00 | 0.00 | 58 | 1009.6 |
| 20260508141522 | 7 | 284 | 1.6 | 19.3 | 0.00 | 0.00 | 0.00 | 60 | 1009.7 |
| 20260508140019 | 7 | 18 | 6.4 | 16.1 | 0.00 | 0.00 | 0.00 | 61 | 1009.7 |
| 20260508133027 | 8 | 352 | 8.0 | 19.3 | 0.00 | 0.00 | 0.00 | 60 | 1009.5 |
| 20260508131526 | 7 | 211 | 9.7 | 25.7 | 0.00 | 0.00 | 0.00 | 59 | 1009.4 |
| 20260508130023 | 7 | 303 | 3.2 | 12.9 | 0.00 | 0.00 | 0.00 | 66 | 1009.4 |
| 20260508124522 | 5 | 109 | 3.2 | 4.8 | 0.00 | 0.00 | 0.00 | 80 | 1009.4 |
| 20260508123020 | 5 | 186 | 0.0 | 3.2 | 0.00 | 0.00 | 0.00 | 82 | 1009.4 |
| 20260508121509 | 2 | 206 | 1.6 | 3.2 | 0.00 | 0.00 | 0.00 | 87 | 1009.4 |
| 20260508120003 | 1 | 287 | 0.0 | 3.2 | 0.00 | 0.03 | 0.00 | 92 | 1009.4 |
| 20260508114507 | 0 | 162 | 0.0 | 3.2 | 0.00 | 0.05 | 0.00 | 95 | 1009.4 |